SCP
0 0 0 0 0 0 0 0 0 0 0 0 0 0 0 0 0 0 0 0 0 0 0 0 0 0 0 0 0 0 0 0 0 0 0 0 0 0 0 0 0 0 0 0
0 0 0 0 0 0 0 0 0 0 0 0 0 0 0 0 0 0 0 0 0 0 0 0 0 0 0 0 0 0 0 0 0 0 0 0 0 0 0 0 0 0 0 0
0 0 0 0 0 0 0 0 0 0 0 0 0 0 0 0 0 0 0 0 0 0 0 0 0 0 0 0 0 0 0 0 0 0 0 0 0 0 0 0 0 0 0 0
0 0 0 0 0 0 0 0 0 0 0 0 0 0 0 0 0 0 0 0 0 0 0 0 0 0 0 0 0 0 0 0 0 0 0 0 0 0 0 0 0 0 0 0
0 0 0 0 0 0 0 0 0 0 0 0 0 0 0 0 0 0 0 0 0 0 0 0 0 0 0 0 0 0 0 0 0 0 0 0 0 0 0 0 0 0 0 0
0 0 0 0 0 0 0 0 0 0 0 0 0 0 0 0 0 0 0 0 0 0 0 0 0 0 0 0 0 0 0 0 0 0 0 0 0 0 0 0 0 0 0 0
0 0 0 0 0 0 0 0 0 0 0 0 0 0 0 0 0 0 0 0 0 0 0 0 0 0 0 0 0 0 0 0 0 0 0 0 0 0 0 0 0 0 0 0
0 0 0 0 0 0 0 0 0 0 0 0 0 0 0 0 0 0 0 0 0 0 0 0 0 0 0 0 0 0 0 0 0 0 0 0 0 0 0 0 0 0 0 0
0 0 0 0 0 0 0 0 0 0 0 0 0 0 0 0 0 0 0 0 0 0 0 0 0 0 0 0 0 0 0 0 0 0 0 0 0 0 0 0 0 0 0 0
0 0 0 0 0 0 0 0 0 0 0 0 0 0 0 0 -0 0 0 0 0 0 0 0 0 0 0 0 0 0 0 0 0 0 0 0 0 0 0 0 0 0 0 0
0 0 0 0 0 0 0 0 0 0 0 0 0 0 0 -0 0 0 0 0 0 0 0 0 0 0 0 0 0 0 0 0 0 0 0 0 0 0 0 0 0 0 0 0
0 0 0 0 0 0 0 0 0 0 0 0 0 0 0 0 0 0 0 0 0 0 0 0 0 0 0 0 0 0 0 0 0 0 0 0 0 0 0 0 0 0 0 0
0 0 0 0 0 0 0 0 0 0 0 0 0 0 0 0 0 0 0 0 0 0 0 0 0 0 0 0 0 0 0 0 0 0 0 0 0 0 0 0 0 0 0 0
0 0 0 0 0 0 0 0 0 0 0 0 0 0 0 0 0 0 0 0 0 0 0 0 0 0 0 0 0 0 0 0 0 0 0 0 0 0 0 0 0 0 0 0
0 0 0 0 0 0 0 0 0 0 0 0 0 0 0 0 0 0 0 0 0 0 0 0 0 0 0 0 0 0 0 0 0 0 0 0 0 0 0 0 0 0 0 0
0 0 0 0 0 0 0 0 0 0 0 0 0 0 0 0 0 0 0 0 0 0 0 0 0 0 0 0 0 0 0 0 0 0 0 0 0 0 -0 0 0 0 0 0
0 0 0 0 0 0 0 0 0 0 0 0 0 0 0 0 0 0 0 0 0 0 0 0 0 0 0 0 0 0 0 0 0 0 0 0 0 0 -0 0 0 0 0 0
0 0 0 0 0 0 0 0 0 0 0 0 0 0 0 0 0 0 0 0 0 0 0 0 0 0 0 0 0 0 0 0 0 0 0 0 0 0 0 0 0 0 0 0
0 0 0 0 0 0 0 0 0 0 0 0 0 0 0 0 0 0 0 0 0 0 0 0 0 0 0 0 0 0 0 0 0 0 0 0 0 0 0 0 0 0 0 0
0 0 0 0 0 0 0 0 0 0 0 0 0 0 0 0 0 0 0 0 0 0 0 0 0 0 0 0 0 0 0 0 0 0 0 0 0 0 0 0 0 0 0 0
0 0 0 0 0 0 0 0 0 0 0 0 0 0 0 0 0 0 0 0 0 0 0 0 0 0 0 0 0 0 0 0 0 0 0 0 0 0 0 0 0 0 0 0
0 0 0 0 0 0 0 0 0 0 0 0 0 0 0 0 0 0 0 0 0 0 0 0 0 0 0 0 0 0 0 0 0 -0 0 0 0 0 0 0 0 0 0 0
0 0 0 0 0 0 0 0 0 0 0 0 0 0 0 0 0 0 0 0 0 0 0 0 0 0 0 0 0 0 0 0 0 -0 -0 0 0 0 0 0 0 0 0 0
0 0 0 0 0 0 0 0 0 0 0 0 0 0 0 0 0 0 0 0 0 0 0 0 0 0 0 0 0 0 0 0 0 -0 -0 0 0 -0 -0 0 -0 0 0 0
0 0 0 0 0 0 0 0 0 0 0 0 0 0 0 0 0 0 0 0 0 0 0 0 -0 -0 0 0 0 0 0 0 0 -0 -0 -0 0 -0 -0 -0 -0 -0 0 0
0 0 0 0 0 0 0 0 0 0 0 0 0 0 0 0 0 0 0 0 0 0 0 -0 -0 0 -0 -0 -0 0 0 0 0 -0 -0 0 -0 -0 -0 -0 -0 -0 -0 -0
Wind_Speed_500mb
6 9 6 10 11 6 7 6 1 5 1 7 11 6 15 34 34 39 48 49 49 45 28 24 24 23 22 19 19 21 20 20 24 25 28 31 37 43 46 49 53 60 65 69
10 5 11 9 7 6 5 7 0 6 8 8 10 5 6 16 25 55 59 57 54 44 32 25 24 24 23 19 25 27 25 28 32 31 32 36 43 47 53 56 64 68 75 79
9 6 6 8 9 12 4 10 6 6 8 9 6 9 7 3 4 13 42 60 51 41 32 28 29 26 20 22 25 24 30 36 35 31 35 41 46 54 61 67 77 81 86 91
6 8 7 5 7 8 6 5 4 4 6 5 6 8 8 8 14 3 19 45 46 34 29 29 23 20 20 21 22 29 34 36 27 31 38 43 52 61 68 79 90 94 96 100
10 2 4 5 7 9 9 7 5 4 7 6 6 6 13 7 6 3 17 34 25 25 24 22 21 20 17 19 27 28 27 23 26 31 36 48 60 72 85 93 101 106 109 108
8 2 6 11 6 4 14 11 14 9 6 2 6 9 9 8 10 7 11 24 20 24 19 19 18 15 18 21 13 12 14 17 22 33 47 62 76 88 98 103 107 111 110 105
4 4 5 5 9 6 12 12 6 7 7 10 7 4 15 9 11 16 21 31 20 17 17 17 19 21 16 9 11 12 15 25 39 53 64 75 85 93 99 104 106 103 99 95
9 9 11 7 11 15 6 14 10 10 6 8 4 9 9 6 15 19 21 22 17 16 15 15 14 7 6 7 13 20 31 43 55 67 80 88 97 100 99 97 90 86 78 67
10 8 2 6 6 12 7 5 8 14 6 4 6 11 13 4 4 11 23 20 14 12 12 13 5 4 4 11 22 34 45 56 69 82 95 103 100 95 88 81 77 75 69 70
14 3 1 5 11 14 7 13 6 5 4 7 9 9 10 10 16 14 18 22 18 13 14 12 5 1 10 21 33 44 58 72 88 99 100 98 91 81 73 70 67 66 67 67
11 9 7 2 8 16 4 3 11 9 9 10 2 11 13 20 22 21 32 23 16 8 13 7 4 6 18 31 46 60 75 90 98 98 94 87 77 69 65 64 64 64 65 64
9 11 8 12 7 2 6 11 12 10 9 4 8 12 6 15 10 9 9 19 14 14 12 9 2 16 31 46 60 75 88 94 94 91 83 74 66 61 61 59 60 62 65 62
16 1 6 12 11 4 6 8 9 10 7 13 11 12 4 11 3 5 21 18 18 16 10 2 16 30 43 56 70 82 89 90 86 77 70 67 62 60 58 60 62 61 61 59
18 7 15 18 14 9 9 9 10 10 8 9 11 9 12 1 9 14 22 18 16 11 7 15 25 38 50 63 75 83 84 80 72 67 64 61 62 59 59 60 58 57 55 56
9 11 7 4 9 9 8 9 12 10 8 9 10 12 14 7 12 17 18 14 12 7 9 20 30 43 57 69 77 78 75 68 65 62 59 60 57 56 58 57 56 54 51 50
3 7 7 6 6 9 6 12 14 12 9 10 7 10 2 13 24 17 14 13 8 4 11 22 35 50 64 71 72 70 66 62 59 58 56 54 53 55 56 55 55 52 49 47
12 13 7 7 9 7 9 16 11 6 4 8 10 13 15 9 18 12 9 8 10 9 15 29 45 56 62 64 66 63 59 55 55 54 49 50 51 55 55 54 51 49 48 48
5 12 6 8 8 8 8 5 10 16 5 2 8 12 18 24 20 13 8 9 10 10 22 35 45 53 57 59 58 54 51 49 51 49 45 46 49 52 52 52 50 49 49 51
5 6 6 10 8 7 5 7 12 10 3 3 13 17 27 25 15 12 13 11 9 15 25 36 44 50 53 53 50 49 50 47 46 46 43 44 46 48 49 49 50 51 53 55
12 6 9 6 11 15 12 9 18 15 3 15 18 25 26 19 2 5 14 8 7 17 29 38 46 47 45 45 47 49 49 49 46 43 40 40 41 45 50 51 55 56 59 60
6 7 7 7 5 10 9 11 16 11 12 42 32 29 28 9 9 18 19 7 8 21 30 38 42 39 39 43 48 51 47 46 40 37 37 43 45 48 51 49 53 56 57 56
3 2 3 5 7 10 14 14 14 11 12 50 37 29 21 16 23 28 18 6 12 23 32 39 36 36 38 41 42 44 47 41 38 40 42 45 48 51 47 50 54 58 62 63
7 11 5 10 8 11 13 5 18 35 57 44 36 27 19 27 29 23 15 6 14 24 32 35 34 34 34 35 40 48 49 46 45 47 47 46 47 50 52 43 57 55 57 58
6 19 5 7 13 17 13 10 34 44 56 39 30 26 22 26 26 19 11 6 14 22 30 30 31 33 37 42 52 60 60 58 56 58 52 45 44 49 46 47 51 55 59 60
10 22 8 3 8 6 9 29 43 44 39 36 30 26 23 20 22 15 10 6 14 21 24 30 40 47 55 53 52 47 45 41 39 44 46 42 34 33 41 45 47 49 52 52
9 10 9 9 32 15 27 48 49 44 42 37 31 29 21 12 16 15 11 8 12 16 24 33 42 42 41 37 35 37 31 31 45 43 44 40 38 38 36 36 37 38 40 42
Wind_Direction_500mb
23 61 229 221 195 149 146 118 312 280 199 141 206 185 172 189 197 203 207 199 197 196 186 187 202 219 228 234 261 273 281 293 297 303 299 302 311 315 317 318 318 319 319 319
26 226 223 198 138 156 134 116 3 293 355 141 181 206 62 164 207 216 211 206 202 201 203 207 219 234 245 251 267 269 292 296 289 282 289 300 305 309 311 314 313 313 313 312
163 236 121 148 122 100 58 133 158 183 349 45 61 338 346 289 318 260 228 216 202 204 213 219 233 239 237 265 267 278 289 285 281 277 287 294 298 304 307 308 308 307 307 307
212 291 142 129 152 128 154 188 120 96 80 213 42 259 294 318 314 310 206 199 198 215 233 229 226 233 254 262 258 279 280 285 273 276 287 297 304 305 306 305 305 304 304 304
246 125 124 142 199 141 204 91 63 71 90 73 1 79 270 320 293 179 155 172 185 202 204 208 225 239 249 256 276 280 285 274 270 285 297 303 304 304 305 305 305 306 306 305
216 302 168 197 84 92 143 79 47 49 77 26 218 137 273 207 214 201 189 180 176 179 194 221 243 247 259 279 275 286 292 277 290 303 307 308 309 309 309 309 308 308 308 307
336 285 312 140 103 52 75 62 346 352 8 222 178 92 241 234 232 194 195 192 191 191 219 242 262 246 272 270 301 311 302 310 314 313 312 311 312 311 311 312 312 311 309 308
151 308 181 184 176 181 152 146 152 205 209 261 295 230 253 249 280 200 194 183 185 212 242 248 237 244 260 288 310 314 317 317 315 315 315 316 318 317 315 313 311 311 314 307
147 267 252 193 139 129 177 152 160 103 16 40 270 297 317 215 220 216 198 197 202 230 244 210 188 216 261 309 318 321 321 319 319 319 322 321 319 317 315 317 320 320 316 315
204 106 270 145 108 42 141 150 78 21 149 261 298 282 235 241 230 229 233 216 218 246 199 170 165 272 317 324 326 327 324 323 325 325 321 320 321 322 324 322 322 322 318 315
138 119 273 125 196 168 99 124 57 116 131 169 228 264 216 210 214 210 227 213 224 209 158 148 154 307 328 331 329 328 328 328 325 322 323 325 328 329 328 330 330 328 326 324
187 136 167 195 316 98 143 173 144 130 222 178 149 274 295 253 276 228 244 216 201 159 153 155 321 334 332 332 331 332 328 325 326 328 331 334 336 335 336 335 337 337 333 329
183 246 76 357 353 335 185 175 124 109 82 188 142 257 326 350 91 140 153 155 142 138 128 22 332 336 339 335 334 328 327 329 332 338 341 342 344 344 341 342 342 337 336 334
132 123 158 190 201 148 160 168 146 132 129 173 218 272 292 268 103 129 133 130 121 101 33 345 341 344 337 335 330 330 332 336 342 347 347 349 349 348 347 345 341 341 342 342
127 158 149 194 172 134 149 168 169 179 172 155 244 198 277 231 162 146 123 107 100 58 1 349 345 340 335 333 333 332 338 344 348 348 352 352 350 350 351 348 347 348 349 349
39 166 143 150 169 136 203 240 207 204 202 241 251 247 172 133 136 129 111 110 96 59 1 351 344 338 337 335 334 341 345 350 350 353 352 351 353 356 356 357 357 358 359 1
142 136 110 220 152 107 311 229 199 142 104 139 181 215 159 119 121 114 112 130 112 62 6 348 343 339 336 337 344 346 349 349 352 352 353 357 360 1 4 7 7 9 12 15
165 111 101 140 114 220 246 349 143 120 106 205 100 120 142 137 118 91 94 121 94 31 358 345 339 338 342 346 348 350 350 350 353 356 360 5 7 10 12 17 19 23 26 29
188 127 108 145 184 295 134 186 151 135 189 250 137 138 134 138 115 62 97 107 69 14 348 342 341 346 349 351 354 357 359 1 1 6 6 12 14 19 25 31 33 37 42 45
0 23 116 189 164 202 226 179 158 109 293 200 150 151 164 150 82 232 156 119 37 352 348 346 351 352 355 2 2 5 1 7 9 11 13 23 29 41 45 45 45 47 52 55
337 335 161 167 161 283 240 146 129 107 236 169 167 160 146 161 191 151 160 145 5 356 352 355 0 5 8 8 10 11 13 15 17 25 35 51 56 55 51 49 52 51 51 56
184 45 330 10 87 253 184 128 160 194 144 162 160 157 156 147 142 149 154 106 11 360 360 7 11 13 14 12 16 21 27 30 40 53 61 65 62 52 49 51 52 50 52 53
198 187 175 198 225 293 222 218 195 158 151 155 152 156 159 153 154 153 140 80 15 6 12 18 17 22 23 28 38 46 48 53 61 57 58 58 55 44 34 52 53 55 53 57
253 170 186 145 243 245 216 147 155 161 154 151 156 152 160 152 154 154 136 63 17 18 27 26 31 43 52 59 71 66 56 53 51 48 42 33 32 40 53 56 53 50 49 49
211 148 200 227 303 311 189 164 155 149 151 149 147 146 138 140 157 158 138 77 30 34 49 56 71 78 81 75 71 65 55 59 48 31 35 43 51 49 48 50 50 45 44 43
204 177 159 217 206 192 181 167 165 161 157 152 145 138 136 155 159 159 138 73 40 66 84 94 95 88 83 73 61 61 57 44 28 33 36 44 49 47 44 45 49 51 48 42
Wind_Speed_850mb
6 9 6 10 11 6 7 6 1 5 1 7 11 6 15 34 34 39 48 49 49 45 28 24 24 23 22 19 19 21 20 20 24 25 28 31 37 43 46 49 53 60 65 69
10 5 11 9 7 6 5 7 0 6 8 8 10 5 6 16 25 55 59 57 54 44 32 25 24 24 23 19 25 27 25 28 32 31 32 36 43 47 53 56 64 68 75 79
9 6 6 8 9 12 4 10 6 6 8 9 6 9 7 3 4 13 42 60 51 41 32 28 29 26 20 22 25 24 30 36 35 31 35 41 46 54 61 67 77 81 86 91
6 8 7 5 7 8 6 5 4 4 6 5 6 8 8 8 14 3 19 45 46 34 29 29 23 20 20 21 22 29 34 36 27 31 38 43 52 61 68 79 90 94 96 100
10 2 4 5 7 9 9 7 5 4 7 6 6 6 13 7 6 3 17 34 25 25 24 22 21 20 17 19 27 28 27 23 26 31 36 48 60 72 85 93 101 106 109 108
8 2 6 11 6 4 14 11 14 9 6 2 6 9 9 8 10 7 11 24 20 24 19 19 18 15 18 21 13 12 14 17 22 33 47 62 76 88 98 103 107 111 110 105
4 4 5 5 9 6 12 12 6 7 7 10 7 4 15 9 11 16 21 31 20 17 17 17 19 21 16 9 11 12 15 25 39 53 64 75 85 93 99 104 106 103 99 95
9 9 11 7 11 15 6 14 10 10 6 8 4 9 9 6 15 19 21 22 17 16 15 15 14 7 6 7 13 20 31 43 55 67 80 88 97 100 99 97 90 86 78 67
10 8 2 6 6 12 7 5 8 14 6 4 6 11 13 4 4 11 23 20 14 12 12 13 5 4 4 11 22 34 45 56 69 82 95 103 100 95 88 81 77 75 69 70
14 3 1 5 11 14 7 13 6 5 4 7 9 9 10 10 16 14 18 22 18 13 14 12 5 1 10 21 33 44 58 72 88 99 100 98 91 81 73 70 67 66 67 67
11 9 7 2 8 16 4 3 11 9 9 10 2 11 13 20 22 21 32 23 16 8 13 7 4 6 18 31 46 60 75 90 98 98 94 87 77 69 65 64 64 64 65 64
9 11 8 12 7 2 6 11 12 10 9 4 8 12 6 15 10 9 9 19 14 14 12 9 2 16 31 46 60 75 88 94 94 91 83 74 66 61 61 59 60 62 65 62
16 1 6 12 11 4 6 8 9 10 7 13 11 12 4 11 3 5 21 18 18 16 10 2 16 30 43 56 70 82 89 90 86 77 70 67 62 60 58 60 62 61 61 59
18 7 15 18 14 9 9 9 10 10 8 9 11 9 12 1 9 14 22 18 16 11 7 15 25 38 50 63 75 83 84 80 72 67 64 61 62 59 59 60 58 57 55 56
9 11 7 4 9 9 8 9 12 10 8 9 10 12 14 7 12 17 18 14 12 7 9 20 30 43 57 69 77 78 75 68 65 62 59 60 57 56 58 57 56 54 51 50
3 7 7 6 6 9 6 12 14 12 9 10 7 10 2 13 24 17 14 13 8 4 11 22 35 50 64 71 72 70 66 62 59 58 56 54 53 55 56 55 55 52 49 47
12 13 7 7 9 7 9 16 11 6 4 8 10 13 15 9 18 12 9 8 10 9 15 29 45 56 62 64 66 63 59 55 55 54 49 50 51 55 55 54 51 49 48 48
5 12 6 8 8 8 8 5 10 16 5 2 8 12 18 24 20 13 8 9 10 10 22 35 45 53 57 59 58 54 51 49 51 49 45 46 49 52 52 52 50 49 49 51
5 6 6 10 8 7 5 7 12 10 3 3 13 17 27 25 15 12 13 11 9 15 25 36 44 50 53 53 50 49 50 47 46 46 43 44 46 48 49 49 50 51 53 55
12 6 9 6 11 15 12 9 18 15 3 15 18 25 26 19 2 5 14 8 7 17 29 38 46 47 45 45 47 49 49 49 46 43 40 40 41 45 50 51 55 56 59 60
6 7 7 7 5 10 9 11 16 11 12 42 32 29 28 9 9 18 19 7 8 21 30 38 42 39 39 43 48 51 47 46 40 37 37 43 45 48 51 49 53 56 57 56
3 2 3 5 7 10 14 14 14 11 12 50 37 29 21 16 23 28 18 6 12 23 32 39 36 36 38 41 42 44 47 41 38 40 42 45 48 51 47 50 54 58 62 63
7 11 5 10 8 11 13 5 18 35 57 44 36 27 19 27 29 23 15 6 14 24 32 35 34 34 34 35 40 48 49 46 45 47 47 46 47 50 52 43 57 55 57 58
6 19 5 7 13 17 13 10 34 44 56 39 30 26 22 26 26 19 11 6 14 22 30 30 31 33 37 42 52 60 60 58 56 58 52 45 44 49 46 47 51 55 59 60
10 22 8 3 8 6 9 29 43 44 39 36 30 26 23 20 22 15 10 6 14 21 24 30 40 47 55 53 52 47 45 41 39 44 46 42 34 33 41 45 47 49 52 52
9 10 9 9 32 15 27 48 49 44 42 37 31 29 21 12 16 15 11 8 12 16 24 33 42 42 41 37 35 37 31 31 45 43 44 40 38 38 36 36 37 38 40 42
Wind_Direction_850mb
23 61 229 221 195 149 146 118 312 280 199 141 206 185 172 189 197 203 207 199 197 196 186 187 202 219 228 234 261 273 281 293 297 303 299 302 311 315 317 318 318 319 319 319
26 226 223 198 138 156 134 116 3 293 355 141 181 206 62 164 207 216 211 206 202 201 203 207 219 234 245 251 267 269 292 296 289 282 289 300 305 309 311 314 313 313 313 312
163 236 121 148 122 100 58 133 158 183 349 45 61 338 346 289 318 260 228 216 202 204 213 219 233 239 237 265 267 278 289 285 281 277 287 294 298 304 307 308 308 307 307 307
212 291 142 129 152 128 154 188 120 96 80 213 42 259 294 318 314 310 206 199 198 215 233 229 226 233 254 262 258 279 280 285 273 276 287 297 304 305 306 305 305 304 304 304
246 125 124 142 199 141 204 91 63 71 90 73 1 79 270 320 293 179 155 172 185 202 204 208 225 239 249 256 276 280 285 274 270 285 297 303 304 304 305 305 305 306 306 305
216 302 168 197 84 92 143 79 47 49 77 26 218 137 273 207 214 201 189 180 176 179 194 221 243 247 259 279 275 286 292 277 290 303 307 308 309 309 309 309 308 308 308 307
336 285 312 140 103 52 75 62 346 352 8 222 178 92 241 234 232 194 195 192 191 191 219 242 262 246 272 270 301 311 302 310 314 313 312 311 312 311 311 312 312 311 309 308
151 308 181 184 176 181 152 146 152 205 209 261 295 230 253 249 280 200 194 183 185 212 242 248 237 244 260 288 310 314 317 317 315 315 315 316 318 317 315 313 311 311 314 307
147 267 252 193 139 129 177 152 160 103 16 40 270 297 317 215 220 216 198 197 202 230 244 210 188 216 261 309 318 321 321 319 319 319 322 321 319 317 315 317 320 320 316 315
204 106 270 145 108 42 141 150 78 21 149 261 298 282 235 241 230 229 233 216 218 246 199 170 165 272 317 324 326 327 324 323 325 325 321 320 321 322 324 322 322 322 318 315
138 119 273 125 196 168 99 124 57 116 131 169 228 264 216 210 214 210 227 213 224 209 158 148 154 307 328 331 329 328 328 328 325 322 323 325 328 329 328 330 330 328 326 324
187 136 167 195 316 98 143 173 144 130 222 178 149 274 295 253 276 228 244 216 201 159 153 155 321 334 332 332 331 332 328 325 326 328 331 334 336 335 336 335 337 337 333 329
183 246 76 357 353 335 185 175 124 109 82 188 142 257 326 350 91 140 153 155 142 138 128 22 332 336 339 335 334 328 327 329 332 338 341 342 344 344 341 342 342 337 336 334
132 123 158 190 201 148 160 168 146 132 129 173 218 272 292 268 103 129 133 130 121 101 33 345 341 344 337 335 330 330 332 336 342 347 347 349 349 348 347 345 341 341 342 342
127 158 149 194 172 134 149 168 169 179 172 155 244 198 277 231 162 146 123 107 100 58 1 349 345 340 335 333 333 332 338 344 348 348 352 352 350 350 351 348 347 348 349 349
39 166 143 150 169 136 203 240 207 204 202 241 251 247 172 133 136 129 111 110 96 59 1 351 344 338 337 335 334 341 345 350 350 353 352 351 353 356 356 357 357 358 359 1
142 136 110 220 152 107 311 229 199 142 104 139 181 215 159 119 121 114 112 130 112 62 6 348 343 339 336 337 344 346 349 349 352 352 353 357 360 1 4 7 7 9 12 15
165 111 101 140 114 220 246 349 143 120 106 205 100 120 142 137 118 91 94 121 94 31 358 345 339 338 342 346 348 350 350 350 353 356 360 5 7 10 12 17 19 23 26 29
188 127 108 145 184 295 134 186 151 135 189 250 137 138 134 138 115 62 97 107 69 14 348 342 341 346 349 351 354 357 359 1 1 6 6 12 14 19 25 31 33 37 42 45
0 23 116 189 164 202 226 179 158 109 293 200 150 151 164 150 82 232 156 119 37 352 348 346 351 352 355 2 2 5 1 7 9 11 13 23 29 41 45 45 45 47 52 55
337 335 161 167 161 283 240 146 129 107 236 169 167 160 146 161 191 151 160 145 5 356 352 355 0 5 8 8 10 11 13 15 17 25 35 51 56 55 51 49 52 51 51 56
184 45 330 10 87 253 184 128 160 194 144 162 160 157 156 147 142 149 154 106 11 360 360 7 11 13 14 12 16 21 27 30 40 53 61 65 62 52 49 51 52 50 52 53
198 187 175 198 225 293 222 218 195 158 151 155 152 156 159 153 154 153 140 80 15 6 12 18 17 22 23 28 38 46 48 53 61 57 58 58 55 44 34 52 53 55 53 57
253 170 186 145 243 245 216 147 155 161 154 151 156 152 160 152 154 154 136 63 17 18 27 26 31 43 52 59 71 66 56 53 51 48 42 33 32 40 53 56 53 50 49 49
211 148 200 227 303 311 189 164 155 149 151 149 147 146 138 140 157 158 138 77 30 34 49 56 71 78 81 75 71 65 55 59 48 31 35 43 51 49 48 50 50 45 44 43
204 177 159 217 206 192 181 167 165 161 157 152 145 138 136 155 159 159 138 73 40 66 84 94 95 88 83 73 61 61 57 44 28 33 36 44 49 47 44 45 49 51 48 42